Orbital elements: 2008 YC29 Earth MOID = 0.0075 AU Epoch 2008 Dec. 20.0 TT = JDT 2454820.5 MPC M 257.68069 (2000.0) P Q n 1.24082564 Peri. 140.13403 -0.58696284 +0.80768929 a 0.8576871 Node 93.85335 -0.75633533 -0.52244772 e 0.4332341 Incl. 3.20550 -0.28884510 -0.27328813 P 0.79 H 25.2 G 0.15 Fro...
Orbital elements: 2008 YG30 Earth MOID = 0.0019 AU Epoch 2008 Nov. 30.0 TT = JDT 2454800.5 MPC M 331.45392 (2000.0) P Q n 0.40681465 Peri. 226.46715 -0.87113899 -0.47292404 a 1.8038690 Node 284.90128 +0.48067268 -0.76630343 e 0.5100297 Incl. 7.85887 +0.10035252 -0.43488147 P 2.42 H 24.5 G 0.15 U 9...
Orbital elements: 2008 YW32 Earth MOID = 0.0384 AU Epoch 2008 Nov. 30.0 TT = JDT 2454800.5 MPC M 358.04532 (2000.0) P Q n 0.27503005 Peri. 2.14569 +0.28547316 -0.95824532 a 2.3417972 Node 71.26749 +0.87904353 +0.25495759 e 0.5627755 Incl. 0.99599 +0.38182136 +0.12947024 P 3.58 H 25.1 G 0.15 U 7MPE...
In August 1976, four years after the final Apollo mission, a 6-tonne spacecraft landed on the moon in the Mare Crisium. Over the course of a single day, it sent back spectacular pictures of the lunar surface, gathered rock samples and then blasted off for the journey home. [url=http://en.wikipedia...
Title: Remotely sensed dune celerity and sand flux measurements of the world's fastest barchans (Bodélé, Chad) Authors: Pieter Vermeesch, Nick Drake Quantifying sand flux with field measurements is an expensive and time-consuming process. We here present an alternative approach using the CO...
Sightings of mysterious orange lights in the skies over the festive period have sparked a flurry of calls to the Daily Echo. Retired plumber Peter Pearson, 66, said he and his family spotted a glowing orange sphere over Barton-on-Sea at around 6.55am on Christmas morning. [url=http://www.bourne...
Orbital elements: 2008 YH30 Earth MOID = 0.0084 AU Epoch 2008 Nov. 30.0 TT = JDT 2454800.5 MPC M 4.13796 (2000.0) P Q n 0.45760852 Peri. 309.23760 +0.66478641 -0.74156344 a 1.6677847 Node 98.85070 +0.71044663 +0.59025889 e 0.4652556 Incl. 5.23980 +0.23092122 +0.31887006 P 2.15 H 26.9 G 0.15 U 9 MPE...
Archaeologists have discovered new evidence of ancient ruins, medieval farming and a secret operations bunker on Leckhampton Hill. A team of experts from Gloucestershire made the exciting finds using latest imaging technology. They used hand-held pulse devices called magnetometers to measu...
Cuddle close with a loved one under the bright night skywithout the frostbite. Enjoy the faux sky of the Zeiuss Mark IX Star Projector indoors and see the current position of the planets, the moon and stars, and harder-to-spot phenomena like meteor showers and eclipses. Youll learn about the univer...
If it had only been a couple days earlier, maybe it could have been blamed on Santas sleigh backfiring. A mystery boom that rattled windows and startled residents around the county just after 8 p.m. Saturday remains just that: A mystery. Pierce County 911 fielded about a dozen calls in roughly a five-...
A professor who invented a forerunner of the world wide web has been made a dame in the New Year Honours. Wendy Hall created the "open hypermedia system" Microcosm with colleagues after joining the University of Southampton computer science group in 1984. And in 1994 she became the unive...
Orbital elements: 2008 YD29 Earth MOID = 0.2533 AU Epoch 2008 Nov. 30.0 TT = JDT 2454800.5 MPC M 350.39370 (2000.0) P Q n 0.17178931 Peri. 23.96654 -0.40759691 -0.87491796 a 3.2048321 Node 90.97756 +0.78986120 -0.48150036 e 0.6193824 Incl. 15.16147 +0.45824015 +0.05172963 P 5.74 H 21.9 G 0.15 U 8 M...
Orbital elements: 2008 YG29 Earth MOID = 0.0815 AU Epoch 2008 Nov. 30.0 TT = JDT 2454800.5 MPC M 353.33307 (2000.0) P Q n 0.30289216 Peri. 167.16039 -0.02017454 -0.99405035 a 2.1958906 Node 283.92021 +0.90727194 +0.02677794 e 0.5162592 Incl. 6.33120 +0.42006025 -0.10557861 P 3.25 H 24.0 G 0.15 U 9...
Orbital elements: 2008 YE29 Earth MOID = 0.1767 AU Epoch 2008 Nov. 30.0 TT = JDT 2454800.5 MPC M 315.15767 (2000.0) P Q n 0.49158051 Peri. 343.37900 -0.79403229 -0.60714446 a 1.5900335 Node 159.15125 +0.56681017 -0.75721603 e 0.2683968 Incl. 4.80382 +0.21963368 -0.24083084 P 2.00 H 20.1 G 0.15 U 9...